This demonstration page uses our WeatherBlox Daily Observations layout. Learn more.

Left ArrowRight Arrow

Hourly Observations for June 30, 2022

Temp ( °F °C ) Dew Point ( °F °C ) Humidity (%) Winds ( mph kmh ) Pressure ( in mb ) Visibility ( mi km ) Precip ( " mm )
12:11 am 00:11 Partly Cloudy 73 22.8 71 21.7 94 94 NW 3 6 30.19 1022 8 13 0.00 0.00
12:35 am 00:35 Mostly Cloudy 73 22.8 72 22.2 96 96 Calm 30.20 1023 10 16 0.00 0.00
12:42 am 00:42 Mostly Clear 73 22.8 72 22.2 96 96 Calm 30.20 1023 10 16 0.00 0.00
12:53 am 00:53 Mostly Clear 74 23.3 72 22.2 94 94 Calm 30.19 1023 9 14 0.00 0.00
1:16 am 01:16 Mostly Cloudy 73 22.8 71 21.7 94 94 Calm 30.19 1022 7 11 0.00 0.00
1:36 am 01:36 Partly Cloudy with Mist and Fog 73 22.8 72 22.2 96 96 Calm 30.18 1022 6 10 0.00 0.00
1:44 am 01:44 Mostly Cloudy with Mist and Fog 72 22.2 71 21.7 97 97 Calm 30.18 1022 6 10 0.00 0.00
1:53 am 01:53 Mostly Cloudy 73 22.8 71 21.7 94 94 Calm 30.18 1022 7 11 0.00 0.00
2:53 am 02:53 Mostly Cloudy 73 22.8 72 22.2 96 96 Calm 30.18 1022 7 11 0.00 0.00
3:17 am 03:17 Mostly Cloudy with Mist and Fog 72 22.2 71 21.7 97 97 N 3 6 30.18 1022 5 8 0.00 0.00
3:19 am 03:19 Mostly Cloudy with Mist and Fog 72 22.2 71 21.7 97 97 Calm 30.18 1022 5 8 0.00 0.00
3:34 am 03:34 Partly Cloudy with Mist and Fog 72 22.2 71 21.7 97 97 Calm 30.17 1022 5 8 0.00 0.00
3:53 am 03:53 Clear with Mist and Fog 73 22.8 71 21.7 94 94 Calm 30.17 1022 5 8 0.00 0.00
4:53 am 04:53 Clear 72 22.2 71 21.7 97 97 Calm 30.18 1022 8 13 0.00 0.00
5:11 am 05:11 Mostly Cloudy 72 22.2 71 21.7 97 97 Calm 30.18 1022 9 14 0.00 0.00
5:53 am 05:53 Mostly Cloudy with Mist and Fog 71 21.7 70 21.1 96 96 Calm 30.19 1022 6 10 0.00 0.00
6:53 am 06:53 Partly Cloudy 71 21.7 70 21.1 96 96 Calm 30.20 1023 9 14 0.00 0.00
7:53 am 07:53 Mostly Cloudy 73 22.8 72 22.2 96 96 Calm 30.21 1023 8 13 0.00 0.00
8:53 am 08:53 Partly Cloudy 76 24.4 71 21.7 85 85 SE 3 6 30.22 1023 10 16 0.00 0.00
9:53 am 09:53 Partly Cloudy 78 25.6 70 21.1 76 76 E 3 6 30.21 1023 10 16 0.00 0.00
10:53 am 10:53 Partly Cloudy 80 26.7 70 21.1 71 71 E 6 9 30.20 1023 10 16 0.00 0.00
11:53 am 11:53 Mostly Cloudy 83 28.3 70 21.1 65 65 Calm 30.19 1022 10 16 0.00 0.00
12:53 pm 12:53 Mostly Cloudy 84 28.9 68 20 59 59 ESE 5 7 30.18 1022 10 16 0.00 0.00
1:53 pm 13:53 Mostly Cloudy 86 30 69 20.6 57 57 SSE 6 9 30.16 1021 10 16 0.00 0.00
2:53 pm 14:53 Mostly Cloudy 85 29.4 69 20.6 59 59 NE 6 9 30.13 1020 10 16 0.00 0.00
3:53 pm 15:53 Mostly Cloudy 88 31.1 69 20.6 54 54 Calm 30.10 1019 10 16 0.00 0.00
4:53 pm 16:53 Mostly Sunny 89 31.7 67 19.4 48 48 NE 7 11 30.08 1019 10 16 0.00 0.00
5:53 pm 17:53 Mostly Sunny 89 31.7 65 18.3 45 45 SSE 7 11 30.07 1018 10 16 0.00 0.00
6:42 pm 18:42 Cloudy with Heavy Rain 82 27.8 71 21.7 69 69 W 6 9 30.06 1018 2 3 0.11 2.79
6:51 pm 18:51 Cloudy with Light Rain 81 27 73 23 79 79 W 6 9 30.07 1018 3 5 0.13 3.30
6:53 pm 18:53 Cloudy with Light Rain 79 26.1 74 23.3 85 85 W 6 9 30.09 1019 5 8 0.13 3.30
7:26 pm 19:26 Partly Cloudy with Nearby Thunderstorms 78 25.6 73 22.8 85 85 WSW 3 6 30.08 1019 10 16 0.00 0.00
7:37 pm 19:37 Partly Cloudy with Thunderstorms 77 25 73 22.8 88 88 W 5 7 30.08 1019 10 16 0.00 0.00
7:53 pm 19:53 Partly Cloudy with Nearby Thunderstorms 77 25 74 23.3 90 90 NNW 3 6 30.10 1019 10 16 0.00 0.00
8:11 pm 20:11 Sunny 76 24.4 73 22.8 91 91 NNW 3 6 30.09 1019 10 16 0.00 0.00
8:24 pm 20:24 Sunny with Nearby Thunderstorms 77 25 72 22.2 85 85 N 3 6 30.10 1019 10 16 0.00 0.00
8:53 pm 20:53 Partly Cloudy with Nearby Thunderstorms 77 25 71 21.7 82 82 Calm 30.11 1020 10 16 0.00 0.00
9:02 pm 21:02 Partly Cloudy with Thunderstorms 76 24.4 72 22.2 88 88 ENE 5 7 30.10 1019 10 16 0.00 0.00
9:13 pm 21:13 Mostly Cloudy 75 23.9 73 22.8 94 94 VRB 3 6 30.11 1020 10 16 0.00 0.00
9:40 pm 21:40 Cloudy with Thunderstorms 76 24.4 72 22.2 88 88 SSE 10 17 30.11 1020 6 10 0.03 0.76
9:53 pm 21:53 Cloudy with Thunderstorms 76 24.4 72 22.2 88 88 SE 8 13 30.14 1021 4 6 0.10 2.54
10:31 pm 22:31 Cloudy with Light Rain 71 21.7 68 20 90 90 W 5 7 30.14 1021 7 11 0.12 3.05
10:53 pm 22:53 Mostly Cloudy with Light Rain 71 21.7 69 20.6 94 94 Calm 30.14 1021 10 16 0.14 3.56
11:53 pm 23:53 Clear with Light Rain 72 22.2 70 21.1 94 94 Calm 30.13 1020 10 16 0.00 0.00

Powered by AerisWeather